Ангарка

Россия / Чукотский автономный округ     67°20′13″N   164°00′20″E
темп.,
°C
ветер,
м/с
пор.,
м/с
влажн.,
%
обл.,
%
осадки,
мм/ч
давл.,
гПа
погр.,
м
14 июня, пн
пн1400:00+11юз2247100 0.0 100911
03:00+10з1149100 0.0 100810
06:00+13ю2243100 0.0 100875
09:00+15ю3334100 0.0 1007715
12:00+17зюз3333100 0.0 10052145
15:00+18зсз3333100 0.0 10032351
18:00+18зсз233787 0.0 10021977
21:00+17ссв114612 0.0 100170
15 июня, вт
вт1500:00+13всв115699 0.0 100010
03:00+13с115599 0.0 99910
06:00+15всв115087 0.0 99894
09:00+17ю114224 0.0 9971033
12:00+20зсз2438100 0.0 9962310
15:00+20с2439100 0.0 9952024
18:00+18ссв3548100 0.0 994244
21:00+14с1171100 0.1 99594
16 июня, ср
ср1600:00+12юз2282100 0.1 99511
03:00+10зюз1192100 0.3 99513
06:00+12зюз2386100 0.3 996273
09:00+14зюз347097 0.0 997766
12:00+17юз465380 0.0 9961259
15:00+19ю465464 0.4 9961397
18:00+19ююз575528 2.4 9951259
21:00+16юв347034 2.3 995129
17 июня, чт
чт1700:00+12ю2388100 7.0 99517
03:00+7з3595100 1.4 999217
06:00+3с4797100 5.1 1005351
09:00+3с2390100 0.8 1008454
12:00+4ссв2282100 0.8 1008632
15:00+4с1292100 1.7 1007475
18:00+3зсз1397100 7.6 1007436
21:00+2з1298100 4.1 1007320
18 июня, пт
пт1800:00+2ююз2299100 6.7 1007276
03:00+2ююв2399100 0.8 1007273
06:00+3ююв229592 0.8 1008256
09:00+3вюв2294100 0.0 1009357
12:00+5в3384100 0.1 1009559
15:00+8всв5467100 0.0 1008989
18:00+7ююз3575100 0.3 1009875
21:00+1ю23100100 8.1 1011134